Regional Weather Roundup
Issued by NWS

Home | Current Version | Previous Version | Graphics & Text | Print | Product List | Glossary On
Versions: 1 2 3 4 5 6 7 8 9 10 11 12 13 14 15 16 17 18 19 20 21 22 23 24 25 26 27 28 29 30 31 32 33 34 35 36 37 38 39 40 41 42 43 44 45 46 47 48 49 50
000
ASUS43 KTOP 311659
RWRKS

WEATHER ROUNDUP FOR KANSAS
NATIONAL WEATHER SERVICE GOODLAND KS
1100 AM CST SAT JAN 31 2015

NOTE:  "FAIR" INDICATES FEW OR NO CLOUDS BELOW 12,000 FEET WITH NO
SIGNIFICANT WEATHER AND/OR OBSTRUCTIONS TO VISIBILITY.

KSZ001>006-013>018-027>032-041>047-311800-
NORTHWEST KANSAS

CITY           SKY/WX    TMP DP  RH WIND       PRES   REMARKS
GOODLAND       CLOUDY    38  34  85 NW3       29.89R
HAYS           CLOUDY    34  27  75 S10       30.01F WCI  26
HILL CITY      CLOUDY    36  34  92 S10       29.97F FOG     WCI  28
RUSSELL        RAIN      34  33  96 SE12      30.02F FOG     WCI  25
$$

KSZ061>065-074>080-084>089-311800-
SOUTHWEST KANSAS

CITY           SKY/WX    TMP DP  RH WIND       PRES   REMARKS
DODGE CITY     CLOUDY    37  34  89 S18G28    29.98F FOG     WCI  27
ELKHART          N/A     37  30  75 S12         N/A  WCI  29
GARDEN CITY    CLOUDY    36  35  96 S18G25    29.94F WCI  26
LIBERAL        CLOUDY    37  34  87 S20       29.98F WCI  27
$$

KSZ066>073-081>083-090>101-311800-
SOUTHEAST KANSAS

CITY           SKY/WX    TMP DP  RH WIND       PRES   REMARKS
CHANUTE        CLOUDY    41  33  73 SE10      30.20F
COFFEYVILLE    LGT RAIN  42  32  67 SE6       30.20F
HUTCHINSON     LGT RAIN  37  34  89 S15       30.10F FOG     WCI  28
MEDICINE LODGE   N/A     37  37 100 S6        30.09F
NEWTON         CLOUDY    36  28  75 S13       30.13S WCI  27
PARSONS        LGT RAIN  42  33  70 SE5       30.21F
WICHITA INTL   LGT RAIN  38  36  92 S15       30.13S FOG     WCI  29
WICHITA JABRA  LGT RAIN  37  35  92 S14       30.14R WCI  28
WINFIELD       LGT RAIN  39  31  72 S12       30.18R WCI  32
$$

KSZ007>012-019>026-033>040-048>060-102>105-311800-
NORTHEAST KANSAS

CITY           SKY/WX    TMP DP  RH WIND       PRES   REMARKS
CONCORDIA      LGT SNOW  33  33 100 S15       30.08F VSB 1   WCI  23
EMPORIA        LGT RAIN  36  36 100 S12       30.16F WCI  28
LAWRENCE       LGT RAIN  38  36  92 SE6       30.21S FOG
MANHATTAN      LGT RAIN  36  35  96 S6        30.16S FOG
OLATHE IND     CLOUDY    38  37  97 SE12      30.21F WCI  30
OLATHE EXE     CLOUDY    38  37  97 S9        30.21R
SALINA         LGT RAIN  36  33  89 SE9       30.11F FOG
TOPEKA BILLARD LGT RAIN  39  36  89 SE9       30.19F FOG
TOPEKA FORBES  LGT RAIN  39  36  89 S12       30.18F FOG     WCI  32
$$


USA.gov is the U.S. government's official web portal to all federal, state and local government web resources and services.